| time (UTC) | temp C | wind direction | speed KPH | gust KPH | rain 1hr cm | rain 24hr cm | rain mn cm | humidity % | barometer mb |
| 20260506091537 | 10 | 180 | 12.9 | 25.7 | 0.00 | 0.03 | 0.00 | 36 | 1012.1 |
| 20260506090517 | 10 | 135 | 8.0 | 16.1 | 0.00 | 0.03 | 0.00 | 39 | 1012.1 |
| 20260506085517 | 10 | 113 | 6.4 | 12.9 | 0.00 | 0.03 | 0.00 | 38 | 1012.2 |
| 20260506084517 | 9 | 180 | 6.4 | 11.3 | 0.00 | 0.03 | 0.00 | 43 | 1012.4 |
| 20260506083537 | 8 | 113 | 6.4 | 12.9 | 0.00 | 0.03 | 0.00 | 44 | 1012.4 |
| 20260506082517 | 8 | 113 | 8.0 | 12.9 | 0.00 | 0.03 | 0.00 | 46 | 1012.5 |
| 20260506081517 | 8 | 23 | 4.8 | 14.5 | 0.00 | 0.03 | 0.00 | 44 | 1012.6 |
| 20260506080517 | 7 | 135 | 4.8 | 11.3 | 0.00 | 0.03 | 0.00 | 46 | 1012.6 |
| 20260506072517 | 6 | 45 | 1.6 | 4.8 | 0.00 | 0.03 | 0.00 | 53 | 1012.7 |
| 20260506071517 | 6 | 113 | 4.8 | 11.3 | 0.00 | 0.03 | 0.00 | 52 | 1012.7 |
| 20260506070517 | 6 | 23 | 3.2 | 8.0 | 0.00 | 0.03 | 0.00 | 53 | 1012.7 |
| 20260506062517 | 5 | 135 | 3.2 | 6.4 | 0.00 | 0.03 | 0.00 | 61 | 1012.7 |
| 20260506061537 | 4 | 90 | 1.6 | 4.8 | 0.00 | 0.03 | 0.00 | 63 | 1012.6 |
| 20260506060537 | 3 | 45 | 1.6 | 4.8 | 0.00 | 0.03 | 0.00 | 67 | 1012.5 |
| 20260506050516 | 0 | 293 | 1.6 | 3.2 | 0.00 | 0.03 | 0.00 | 83 | 1012.4 |
| 20260506044517 | -1 | 0.0 | 1.6 | 0.00 | 0.03 | 0.00 | 85 | 1012.3 | |
| 20260506043557 | -1 | 0.0 | 1.6 | 0.00 | 0.03 | 0.00 | 86 | 1012.4 | |
| 20260506042537 | -1 | 0.0 | 1.6 | 0.00 | 0.03 | 0.00 | 88 | 1012.3 | |
| 20260506041516 | -2 | 0.0 | 1.6 | 0.00 | 0.03 | 0.00 | 90 | 1012.3 | |
| 20260506040517 | -2 | 180 | 1.6 | 3.2 | 0.00 | 0.03 | 0.00 | 92 | 1012.2 |
| 20260506035536 | -3 | 0.0 | 0.0 | 0.00 | 0.03 | 0.00 | 91 | 1012.1 | |
| 20260506034516 | -4 | 180 | 1.6 | 1.6 | 0.00 | 0.03 | 0.00 | 90 | 1012.0 |
| 20260506033517 | -4 | 180 | 1.6 | 3.2 | 0.00 | 0.03 | 0.00 | 90 | 1011.9 |
| 20260506032517 | -4 | 180 | 1.6 | 1.6 | 0.00 | 0.03 | 0.00 | 90 | 1011.8 |
| 20260506031516 | -4 | 0.0 | 1.6 | 0.00 | 0.03 | 0.00 | 89 | 1011.8 | |
| 20260506030536 | -4 | 0.0 | 3.2 | 0.00 | 0.03 | 0.00 | 89 | 1011.8 | |
| 20260506025517 | -4 | 0.0 | 1.6 | 0.00 | 0.03 | 0.00 | 89 | 1011.7 | |
| 20260506024537 | -4 | 0.0 | 1.6 | 0.00 | 0.03 | 0.00 | 89 | 1011.7 | |
| 20260506023516 | -4 | 180 | 1.6 | 6.4 | 0.00 | 0.03 | 0.00 | 90 | 1011.6 |
| 20260506022516 | -4 | 225 | 1.6 | 3.2 | 0.00 | 0.03 | 0.00 | 89 | 1011.6 |
| 20260506021516 | -4 | 225 | 1.6 | 3.2 | 0.00 | 0.03 | 0.00 | 89 | 1011.4 |
| 20260506020516 | -4 | 0.0 | 1.6 | 0.00 | 0.03 | 0.00 | 88 | 1011.4 | |
| 20260506015517 | -3 | 225 | 1.6 | 3.2 | 0.00 | 0.03 | 0.00 | 88 | 1011.3 |
| 20260506014537 | -3 | 225 | 1.6 | 1.6 | 0.00 | 0.03 | 0.00 | 88 | 1011.3 |
| 20260506013537 | -3 | 0.0 | 1.6 | 0.00 | 0.03 | 0.00 | 88 | 1011.4 | |
| 20260506012517 | -3 | 0.0 | 1.6 | 0.00 | 0.03 | 0.00 | 88 | 1011.3 | |
| 20260506011517 | -3 | 225 | 1.6 | 3.2 | 0.00 | 0.03 | 0.00 | 87 | 1011.2 |
| 20260506010517 | -3 | 225 | 1.6 | 1.6 | 0.00 | 0.03 | 0.00 | 87 | 1011.1 |
| 20260506005517 | -3 | 248 | 3.2 | 4.8 | 0.00 | 0.03 | 0.00 | 87 | 1011.0 |
| 20260506004516 | -3 | 270 | 1.6 | 3.2 | 0.00 | 0.03 | 0.00 | 86 | 1010.9 |
| 20260506003516 | -3 | 270 | 1.6 | 3.2 | 0.00 | 0.03 | 0.00 | 86 | 1010.9 |
| 20260506002536 | -3 | 248 | 1.6 | 3.2 | 0.00 | 0.03 | 0.00 | 85 | 1010.8 |
| 20260506001516 | -3 | 248 | 1.6 | 3.2 | 0.00 | 0.03 | 0.00 | 85 | 1010.8 |
| 20260506000536 | -3 | 0.0 | 1.6 | 0.00 | 0.03 | 0.00 | 85 | 1010.8 | |
| 20260505235517 | -2 | 248 | 1.6 | 3.2 | 0.00 | 0.03 | 0.00 | 84 | 1010.7 |
| 20260505234516 | -2 | 0.0 | 1.6 | 0.00 | 0.03 | 0.00 | 83 | 1010.8 | |
| 20260505233516 | -2 | 0.0 | 0.0 | 0.00 | 0.03 | 0.00 | 83 | 1010.7 | |
| 20260505232516 | -2 | 0.0 | 1.6 | 0.00 | 0.03 | 0.00 | 82 | 1010.6 | |
| 20260505231536 | -2 | 0.0 | 1.6 | 0.00 | 0.03 | 0.00 | 82 | 1010.5 | |
| 20260505230517 | -2 | 0.0 | 1.6 | 0.00 | 0.03 | 0.00 | 81 | 1010.5 | |
| 20260505225556 | -2 | 315 | 1.6 | 3.2 | 0.00 | 0.03 | 0.00 | 81 | 1010.4 |
| 20260505224516 | -2 | 315 | 3.2 | 4.8 | 0.00 | 0.05 | 0.00 | 81 | 1010.5 |
| 20260505223516 | -2 | 0.0 | 3.2 | 0.00 | 0.05 | 0.00 | 81 | 1010.4 | |
| 20260505222516 | -1 | 0.0 | 1.6 | 0.00 | 0.08 | 0.00 | 80 | 1010.3 | |
| 20260505221536 | -1 | 315 | 1.6 | 3.2 | 0.00 | 0.08 | 0.00 | 79 | 1010.1 |
| 20260505220516 | -1 | 315 | 1.6 | 3.2 | 0.00 | 0.08 | 0.00 | 78 | 1010.1 |
| 20260505215516 | -1 | 315 | 3.2 | 4.8 | 0.00 | 0.10 | 0.10 | 77 | 1010.0 |
| 20260505214516 | -1 | 315 | 3.2 | 4.8 | 0.00 | 0.10 | 0.10 | 76 | 1010.0 |
| 20260505213515 | -1 | 315 | 3.2 | 4.8 | 0.00 | 0.10 | 0.10 | 75 | 1010.1 |
| 20260505212516 | 0 | 315 | 3.2 | 3.2 | 0.00 | 0.10 | 0.10 | 73 | 1009.9 |
| 20260505211516 | 0 | 293 | 3.2 | 3.2 | 0.00 | 0.10 | 0.10 | 72 | 1009.8 |
| 20260505210516 | 0 | 270 | 1.6 | 4.8 | 0.00 | 0.10 | 0.10 | 71 | 1009.8 |
| 20260505205516 | 0 | 0.0 | 1.6 | 0.00 | 0.10 | 0.10 | 70 | 1009.6 | |
| 20260505204516 | 0 | 270 | 1.6 | 3.2 | 0.00 | 0.10 | 0.10 | 68 | 1009.5 |
| 20260505203516 | 1 | 270 | 1.6 | 3.2 | 0.00 | 0.10 | 0.10 | 66 | 1009.5 |
| 20260505202516 | 1 | 0.0 | 3.2 | 0.00 | 0.10 | 0.10 | 64 | 1009.4 | |
| 20260505201516 | 2 | 248 | 1.6 | 3.2 | 0.00 | 0.10 | 0.10 | 62 | 1009.4 |
| 20260505200516 | 2 | 248 | 1.6 | 4.8 | 0.00 | 0.10 | 0.10 | 60 | 1009.3 |
| 20260505195515 | 2 | 248 | 1.6 | 3.2 | 0.00 | 0.10 | 0.10 | 59 | 1009.3 |
| 20260505194516 | 3 | 270 | 3.2 | 6.4 | 0.00 | 0.10 | 0.10 | 58 | 1009.3 |
| 20260505193516 | 3 | 270 | 3.2 | 4.8 | 0.00 | 0.10 | 0.10 | 56 | 1009.2 |
| 20260505192516 | 3 | 270 | 3.2 | 8.0 | 0.00 | 0.10 | 0.10 | 55 | 1009.1 |
| 20260505191516 | 3 | 270 | 3.2 | 6.4 | 0.00 | 0.10 | 0.10 | 54 | 1009.0 |
| 20260505190516 | 4 | 270 | 3.2 | 9.7 | 0.00 | 0.10 | 0.10 | 52 | 1009.0 |
| 20260505185515 | 5 | 270 | 3.2 | 4.8 | 0.00 | 0.10 | 0.10 | 51 | 1008.8 |
| 20260505184516 | 5 | 248 | 3.2 | 6.4 | 0.00 | 0.10 | 0.10 | 50 | 1008.6 |
| 20260505183515 | 5 | 248 | 3.2 | 9.7 | 0.00 | 0.10 | 0.10 | 47 | 1008.6 |
| 20260505182516 | 6 | 248 | 4.8 | 12.9 | 0.00 | 0.10 | 0.10 | 46 | 1008.5 |
| 20260505181516 | 6 | 270 | 4.8 | 12.9 | 0.00 | 0.10 | 0.10 | 49 | 1008.5 |
| 20260505180516 | 6 | 270 | 6.4 | 11.3 | 0.00 | 0.10 | 0.10 | 48 | 1008.4 |
| 20260505175516 | 6 | 270 | 4.8 | 8.0 | 0.00 | 0.10 | 0.10 | 49 | 1008.5 |
| 20260505174515 | 6 | 270 | 6.4 | 12.9 | 0.00 | 0.10 | 0.10 | 47 | 1008.4 |
| 20260505173515 | 7 | 270 | 4.8 | 11.3 | 0.00 | 0.10 | 0.10 | 46 | 1008.3 |
| 20260505172535 | 7 | 270 | 6.4 | 12.9 | 0.00 | 0.10 | 0.10 | 45 | 1008.2 |
| 20260505171516 | 6 | 315 | 8.0 | 16.1 | 0.00 | 0.10 | 0.10 | 45 | 1008.1 |
| 20260505170516 | 7 | 270 | 6.4 | 14.5 | 0.00 | 0.10 | 0.10 | 45 | 1008.1 |
| 20260505165515 | 7 | 270 | 6.4 | 11.3 | 0.00 | 0.10 | 0.10 | 44 | 1007.8 |
| 20260505164536 | 7 | 248 | 4.8 | 11.3 | 0.00 | 0.10 | 0.10 | 44 | 1007.9 |
| 20260505163515 | 7 | 248 | 3.2 | 6.4 | 0.00 | 0.10 | 0.10 | 49 | 1007.8 |
| 20260505162516 | 6 | 248 | 4.8 | 9.7 | 0.00 | 0.10 | 0.10 | 53 | 1008.0 |
| 20260505161515 | 5 | 203 | 8.0 | 14.5 | 0.00 | 0.10 | 0.10 | 56 | 1007.8 |
| 20260505160515 | 6 | 225 | 16.1 | 35.4 | 0.00 | 0.10 | 0.10 | 56 | 1008.1 |
| 20260505152515 | 7 | 338 | 3.2 | 9.7 | 0.00 | 0.10 | 0.10 | 40 | 1007.3 |
| 20260505151516 | 7 | 225 | 11.3 | 20.9 | 0.00 | 0.10 | 0.10 | 42 | 1007.5 |
| 20260505150516 | 7 | 270 | 16.1 | 33.8 | 0.00 | 0.10 | 0.10 | 40 | 1007.3 |
| 20260505140516 | 8 | 248 | 8.0 | 17.7 | 0.03 | 0.10 | 0.10 | 41 | 1007.1 |
| 20260505124515 | 9 | 248 | 6.4 | 17.7 | 0.00 | 0.08 | 0.08 | 38 | 1006.8 |
| 20260505123515 | 8 | 0 | 4.8 | 12.9 | 0.00 | 0.08 | 0.08 | 42 | 1006.8 |
| 20260505122515 | 7 | 293 | 4.8 | 11.3 | 0.00 | 0.08 | 0.08 | 42 | 1006.8 |
| 20260505121517 | 7 | 315 | 8.0 | 17.7 | 0.00 | 0.08 | 0.08 | 50 | 1006.9 |
| 20260505120517 | 6 | 270 | 9.7 | 16.1 | 0.00 | 0.08 | 0.08 | 52 | 1007.0 |
| 20260505115517 | 6 | 315 | 9.7 | 20.9 | 0.00 | 0.08 | 0.08 | 48 | 1006.8 |
| 20260505114537 | 7 | 315 | 14.5 | 24.1 | 0.00 | 0.08 | 0.08 | 49 | 1006.8 |
| 20260505113518 | 8 | 315 | 8.0 | 19.3 | 0.00 | 0.08 | 0.08 | 43 | 1006.4 |
| 20260505112517 | 7 | 248 | 4.8 | 11.3 | 0.00 | 0.08 | 0.08 | 48 | 1006.6 |
| 20260505111517 | 7 | 248 | 4.8 | 11.3 | 0.00 | 0.08 | 0.08 | 47 | 1006.7 |
| 20260505110517 | 7 | 270 | 4.8 | 14.5 | 0.00 | 0.08 | 0.08 | 45 | 1006.6 |
| 20260505101517 | 7 | 293 | 4.8 | 9.7 | 0.00 | 0.08 | 0.08 | 50 | 1006.4 |
| 20260505100517 | 7 | 315 | 9.7 | 20.9 | 0.00 | 0.08 | 0.08 | 51 | 1006.4 |
| 20260505095517 | 7 | 315 | 4.8 | 14.5 | 0.00 | 0.08 | 0.08 | 50 | 1006.4 |
| 20260505094517 | 7 | 315 | 8.0 | 14.5 | 0.00 | 0.08 | 0.08 | 50 | 1006.4 |
| 20260505093517 | 7 | 315 | 9.7 | 16.1 | 0.00 | 0.08 | 0.08 | 50 | 1006.4 |
| 20260505092517 | 7 | 270 | 6.4 | 16.1 | 0.00 | 0.08 | 0.08 | 56 | 1006.4 |